Simultaneous Nadir Overpasses (SNOs) Predictions

Prediction of SNOs between GOES-16 and TERRA Satellite Orbit:

Table of predicted SNOs for the next 14.0 days since TLE Epoch: 12/31/2023
Index Date Time (GOES-16) GOES-16 Lat,Lon TERRA Lat,Lon Distance(km) Time Diff (sec)
1 12/31/2023 14:41:55 -0.03, -75.23 -0.78, -71.80 391.25 80
2 01/01/2024 03:04:47 0.02, -75.21 -0.29, -76.70 169.64 80
3 01/03/2024 02:45:17 0.02, -75.22 0.58, -72.64 294.02 80
4 01/03/2024 15:08:00 -0.01, -75.26 0.46, -77.51 256.28 80
5 01/05/2024 14:48:29 -0.02, -75.28 -0.37, -73.44 208.17 80
6 01/06/2024 03:11:22 0.01, -75.26 -0.63, -78.36 352.30 80
7 01/08/2024 02:51:51 0.02, -75.28 0.23, -74.29 112.23 80
8 01/08/2024 15:14:34 -0.02, -75.31 0.80, -79.17 438.12 80
9 01/10/2024 14:57:43 -0.02, -75.34 -0.08, -75.11 26.78 80
10 01/12/2024 14:40:51 -0.03, -75.37 -0.92, -71.03 492.19 80
11 01/13/2024 03:01:03 0.02, -75.35 -0.07, -75.95 67.98 80
